Milwaukee, WI

1:42 PM CST on November 19, 2017 (GMT -0600)
Gen Mitchell International

Weather History for KMKE - November, 2017

Change the Weather History Date:

Tuesday, November 14, 2017

  Actual Average Record
Temperature  
Mean Temperature 39 °F 40 °F  
Max Temperature 49 °F 47 °F 70 °F (1971)
Min Temperature 28 °F 33 °F 7 °F (1959)
Degree Days  
Heating Degree Days 26 25  
Month to date heating degree days 378 310  
Since 1 July heating degree days 713 895  
Cooling Degree Days 0 0  
Month to date cooling degree days 0 0  
Year to date cooling degree days 772 641  
Moisture  
Dew Point 33 °F    
Average Humidity 83    
Maximum Humidity 100    
Minimum Humidity 65    
Precipitation  
Precipitation T in 0.10 in 1.24 in (1926)
Month to date precipitation 0.62 1.27  
Year to date precipitation 32.88 31.28  
Snow  
Snow 0.00 in 0.10 in 1.50 in (1959)
Month to date snowfall 0.2 0.4  
Since 1 July snowfall 0.2 0.7  
Since 1 September snowfall 0.2 0.7  
Snow Depth 0.00 in    
Sea Level Pressure  
Sea Level Pressure 30.22 in    
Wind  
Wind Speed 9 mph (South)    
Max Wind Speed 17 mph    
Max Gust Speed 23 mph    
Visibility 6 miles    
Events      
T = Trace of Precipitation, MM = Missing Value Source: NWS Daily Summary

Daily Weather History Graph

Daily Weather History Graph

Search for Another Location

Airport or City:

Trip Planner

Search our weather history database for the weather conditions in past years. The results will help you decide how hot, cold, wet, or windy it might be!

Date:

Astronomy

Nov. 14, 2017 Rise Set
Actual Time 6:42 AM CST 4:28 PM CST
Civil Twilight 6:12 AM CST 4:59 PM CST
Nautical Twilight 5:38 AM CST 5:33 PM CST
Astronomical Twilight 5:04 AM CST 6:06 PM CST
Moon 2:35 AM CST (11/14) 2:59 PM CST (11/14)
Length of Visible Light 10h 46m
Length of Day
9h 45m
Waning Crescent, 13% of the Moon is Illuminated
Nov 14
Waning Crescent
Nov 18
New
Nov 26
First Quarter
Dec 3
Full
Dec 10
Last Quarter

Hourly Weather History & Observations

Time (CST) Temp. Windchill Dew Point Humidity Pressure Visibility Wind Dir Wind Speed Gust Speed Precip Events Conditions
12:52 AM 34.0 °F - 32.0 °F 92% 30.37 in 3.0 mi Calm Calm - N/A   Partly Cloudy
1:17 AM 34.0 °F - 30.0 °F 85% 30.34 in 2.5 mi Calm Calm - N/A   Partly Cloudy
1:24 AM 33.1 °F 30.0 °F 30.0 °F 89% 30.34 in 3.0 mi SSE 3.5 mph - N/A   Partly Cloudy
1:52 AM 33.1 °F 27.7 °F 30.9 °F 92% 30.36 in 2.5 mi SSE 5.8 mph - N/A   Clear
2:52 AM 33.1 °F - 32.0 °F 96% 30.35 in 1.8 mi Calm Calm - N/A   Clear
3:52 AM 30.0 °F - 28.9 °F 96% 30.34 in 2.0 mi Calm Calm - N/A   Clear
4:04 AM 30.0 °F - 28.0 °F 92% 30.31 in 1.8 mi Calm Calm - N/A   Clear
4:11 AM 30.9 °F 27.5 °F 28.9 °F 92% 30.31 in 0.8 mi SSE 3.5 mph - N/A   Mist
4:21 AM 28.9 °F 25.2 °F 28.0 °F 96% 30.31 in 1.2 mi SE 3.5 mph - N/A   Scattered Clouds
4:52 AM 30.9 °F 26.2 °F 30.0 °F 96% 30.33 in 1.5 mi SSE 4.6 mph - N/A   Clear
5:02 AM 28.9 °F 25.2 °F 28.9 °F 100% 30.30 in 2.5 mi SE 3.5 mph - N/A   Clear
5:34 AM 32.0 °F 27.5 °F 30.0 °F 92% 30.30 in 3.0 mi South 4.6 mph - N/A   Clear
5:52 AM 32.0 °F 25.6 °F 30.9 °F 96% 30.32 in 3.0 mi South 6.9 mph - N/A   Clear
6:52 AM 33.1 °F 26.9 °F 30.9 °F 92% 30.32 in 3.0 mi SSW 6.9 mph - N/A   Scattered Clouds
7:52 AM 35.1 °F 27.9 °F 33.1 °F 92% 30.32 in 3.0 mi SSW 9.2 mph - N/A   Mostly Cloudy
8:52 AM 39.0 °F 32.8 °F 35.1 °F 86% 30.30 in 6.0 mi SSW 9.2 mph - N/A   Mostly Cloudy
9:52 AM 43.0 °F 36.0 °F 35.1 °F 74% 30.28 in 8.0 mi SSW 13.8 mph - N/A   Mostly Cloudy
10:52 AM 44.1 °F 37.7 °F 36.0 °F 73% 30.24 in 9.0 mi South 12.7 mph - N/A   Mostly Cloudy
11:52 AM 45.0 °F 39.7 °F 36.0 °F 71% 30.22 in 8.0 mi South 10.4 mph - N/A   Overcast
12:52 PM 46.9 °F - 36.0 °F 66% 30.19 in 10.0 mi SSW 11.5 mph - N/A   Overcast
1:52 PM 46.9 °F - 35.1 °F 63% 30.16 in 10.0 mi South 8.1 mph - N/A   Overcast
2:52 PM 46.9 °F - 35.1 °F 63% 30.14 in 10.0 mi South 8.1 mph - N/A   Overcast
3:52 PM 46.9 °F - 37.0 °F 68% 30.13 in 10.0 mi South 10.4 mph - N/A   Overcast
4:52 PM 46.9 °F - 35.1 °F 63% 30.11 in 10.0 mi South 9.2 mph - N/A   Overcast
5:52 PM 46.9 °F - 36.0 °F 66% 30.09 in 10.0 mi South 12.7 mph - N/A   Overcast
6:52 PM 46.9 °F - 37.0 °F 68% 30.07 in 10.0 mi South 13.8 mph - 0.00 in   Light Drizzle
7:52 PM 48.0 °F - 37.0 °F 66% 30.05 in 10.0 mi South 12.7 mph - 0.00 in   Overcast
8:52 PM 48.0 °F - 37.9 °F 68% 30.05 in 10.0 mi South 11.5 mph 20.7 mph N/A   Overcast
9:52 PM 48.0 °F - 37.9 °F 68% 30.02 in 10.0 mi South 11.5 mph - N/A   Overcast
10:52 PM 48.0 °F - 37.0 °F 66% 30.02 in 10.0 mi South 11.5 mph - N/A   Overcast
11:52 PM 48.9 °F - 37.0 °F 64% 29.99 in 10.0 mi South 10.4 mph - N/A   Overcast